Location: Norton
(51.3000°N, 0.8167°E)
Time: 02:54:09
(UTC+00:00)

Cosmos 1727 Rocket - Pass Details

Date: 03 March 2021
Orbit: 961 x 996 km, 82.9° (Epoch: 13 April)

Event Time Altitude Azimuth Distance (km) Brightness Sun altitude
Rises 20:25:59 0° 348° (NNW) 3,660 7.5 -26.0°
Reaches altitude 10° 20:28:30 10° 345° (NNW) 2,710 6.8 -26.4°
Maximum altitude 20:34:37 65° 266° (W) 1,057 4.3 -27.2°
Enters shadow 20:37:45 30° 194° (SSW) 1,662 5.0 -27.7°
